Date,Male,Female,AveTemp,MaxTemp,MinTemp,SunshineDur,AveVapPress,RH,Rainfall,RainfallPerHour
2002-09-01,NA,NA,28.2,32.2,25.9,11.6,25.6,68,0,0
2002-09-02,NA,NA,28.4,33.4,24.7,10.3,26,68,0,0
2002-09-03,NA,NA,28.5,33.4,25.4,10.9,26.6,69,0,0
2002-09-04,NA,NA,28.5,32.4,26.1,10.3,26.2,68,0,0
2002-09-05,NA,NA,26.3,29.5,23.6,4.6,25.6,75,0,0
2002-09-06,NA,NA,22.5,23.8,21.9,0,24.5,90,147,39
2002-09-07,NA,NA,23.1,26,21.7,0,24.6,87,13,9
2002-09-08,NA,NA,24,27.5,22,4.3,24,81,3,1
2002-09-09,NA,NA,23.6,27.3,20.8,0.2,23.2,80,11,5
2002-09-10,NA,NA,23.1,25.8,20.1,0.5,22,78,4,2
2002-09-11,NA,NA,25.6,30.3,21.2,9.1,23.7,73,0,0
2002-09-12,NA,NA,27.2,30.7,23.6,11.1,24,67,0,0
2002-09-13,NA,NA,23.4,26.8,18.3,0.8,21.1,74,8,4
2002-09-14,NA,NA,18.8,19.4,17.9,0,16.1,74,1,1
2002-09-15,NA,NA,19.7,20.7,18.6,0,16.4,71,0,0
2002-09-16,NA,NA,18.7,20.1,17.6,0,17.8,83,14,4
2002-09-17,NA,NA,20,23.3,18,0,20.8,89,8,2
2002-09-18,NA,NA,22.9,28,18.9,6.6,15.4,57,0,0
2002-09-19,NA,NA,21.1,24.8,18.4,8.6,13.7,56,0,0
2002-09-20,NA,NA,21,26.4,16,11.4,14.9,62,0,0
2002-09-21,NA,NA,21.5,26,17.3,4.3,16,63,0,0
2002-09-22,NA,NA,19.7,21.8,16,0,16.5,72,10,3
2002-09-23,NA,NA,19.3,23.3,16.3,0.8,16.5,74,0,0
2002-09-24,NA,NA,20.3,24.3,17.1,9.3,12.9,55,0,0
2002-09-25,NA,NA,20.9,25.1,16.7,8.9,13.9,57,0,0
2002-09-26,NA,NA,20,22.6,18.1,2.6,13.8,59,0,0
2002-09-27,NA,NA,17,19.4,15.8,0,15,77,5,1
2002-09-28,NA,NA,17.5,20.1,14.8,0,17.8,89,29,9
2002-09-29,NA,NA,23.1,28,18.7,4.5,21.7,77,0,0
2002-09-30,NA,NA,20.1,23.3,18,0,19.8,84,8,2
2002-10-01,NA,NA,20.1,25.8,17.6,0,20.3,86,68,18
2002-10-02,NA,NA,23.9,28.5,20.8,10.9,17.8,61,0,0
2002-10-03,NA,NA,22.6,26.6,19.6,3.1,17.2,63,0,0
2002-10-04,NA,NA,23,28,18.8,9.7,18.1,65,0,0
2002-10-05,NA,NA,22.3,26.4,19,9.7,18.4,69,0,0
2002-10-06,NA,NA,22.1,25,19,3.1,20,75,0,0
2002-10-07,NA,NA,24.4,28.5,21.5,3.7,21.2,70,45,13
2002-10-08,NA,NA,20.1,22.3,18.6,0,17.5,74,1,1
2002-10-09,NA,NA,18.4,20.4,16.7,0.3,15.8,75,2,1
2002-10-10,NA,NA,19.1,23.6,15.7,8.1,10.8,50,0,0
2002-10-11,NA,NA,16.8,20.7,13,10.2,10,53,0,0
2002-10-12,NA,NA,17.2,22.3,12.4,10.7,11.7,61,0,0
2002-10-13,NA,NA,17.6,23.3,12.8,10.8,12.5,63,0,0
2002-10-14,NA,NA,20.2,25.6,14.3,10.1,14.9,63,0,0
2002-10-15,NA,NA,22.8,26,19.3,9.2,17.6,64,4,4
2002-10-16,NA,NA,20.7,25.4,16.1,9.8,14.4,60,4,4
2002-10-17,NA,NA,19.8,24.4,15.8,9.7,14.2,62,0,0
2002-10-18,NA,NA,18.4,20.7,16.4,0.7,17.8,84,18,4
2002-10-19,NA,NA,19.8,23.1,17.8,0.4,18.4,80,4,2
2002-10-20,NA,NA,17.6,19.9,14.8,0,16.2,81,3,2
2002-10-21,NA,NA,14.8,16.2,14.1,0,14.5,86,40,8
2002-10-22,NA,NA,16.9,21.6,12.2,9.5,12.7,66,0,0
2002-10-23,NA,NA,16.4,18.5,15,3,11.8,63,0,0
2002-10-24,NA,NA,14.1,16.2,12.1,0,13.1,82,4,1
2002-10-25,NA,NA,16.6,20.7,13.2,8.3,13.2,71,0,0
2002-10-26,NA,NA,14,15.1,13,0,13.1,82,13,8
2002-10-27,NA,NA,16.1,20.9,12.6,8.5,10.8,61,0,0
2002-10-28,NA,NA,14.3,18.8,10.1,10.4,7.1,44,0,0
2002-10-29,NA,NA,13.4,17.1,9.6,10.3,6.3,41,0,0
2002-10-30,NA,NA,13.2,18.6,8.8,10.3,6.7,45,0,0
2002-10-31,NA,NA,13.9,16.5,10.8,5.6,8.2,51,0,0
2002-11-01,NA,NA,11.9,14.5,10.2,0,10.8,78,8,3
2002-11-02,NA,NA,12.8,16.8,9.5,7.5,7.1,49,0,0
2002-11-03,NA,NA,12.1,17.5,6.9,10.2,6.9,50,0,0
2002-11-04,NA,NA,12.1,17.9,8.4,9.5,6.1,44,0,0
2002-11-05,NA,NA,10.6,15.1,6.3,7.9,6,48,0,0
2002-11-06,NA,NA,10.7,15.8,5.9,9.7,5.7,46,0,0
2002-11-07,NA,NA,8.9,11.7,7.2,0.1,7,61,0,0
2002-11-08,NA,NA,14.1,18.3,6.4,4.2,11,68,0,0
2002-11-09,NA,NA,11.6,15.7,7.7,7,5.6,41,0,0
2002-11-10,NA,NA,10.4,15.8,4.4,10,6.6,53,0,0
2002-11-11,NA,NA,12.5,16.7,6.9,9.6,8.5,58,0,0
2002-11-12,NA,NA,17.4,19,14.3,0,14.2,71,0,0
2002-11-13,NA,NA,13.2,17.1,9.4,9.3,6.7,44,0,0
2002-11-14,NA,NA,10.9,15,7.1,8.6,6,46,0,0
2002-11-15,NA,NA,11.3,14.6,8.9,1.4,6.4,47,0,0
2002-11-16,NA,NA,10.1,11.4,9,0.2,8.1,65,0,0
2002-11-17,NA,NA,10.1,12.3,8.3,0.1,7.3,59,0,0
2002-11-18,NA,NA,12.8,19.4,8.3,8,7.2,50,0,0
2002-11-19,NA,NA,10.4,12.4,8.3,1,5.8,46,0,0
2002-11-20,NA,NA,10.7,13.4,8.8,0.3,7.8,60,0,0
2002-11-21,NA,NA,12.3,17,8.1,4.7,8.3,59,0,0
2002-11-22,NA,NA,8.9,10.8,8.2,0,6.5,57,0,0
2002-11-23,NA,NA,8.5,9.5,7.3,0,7,63,0,0
2002-11-24,NA,NA,10.3,11.6,8.8,0,9.3,75,0,0
2002-11-25,NA,NA,10.8,12.8,8.7,0.1,10.8,84,14,3
2002-11-26,NA,NA,11.3,17.2,7.8,1,8.4,64,5,2
2002-11-27,NA,NA,9.5,14.3,5.4,9.5,5.8,49,0,0
2002-11-28,NA,NA,9.3,14.7,4.2,9.6,4.6,41,0,0
2002-11-29,NA,NA,9.2,12.5,6.2,6.1,6.1,52,0,0
2002-11-30,NA,NA,11.9,17.7,6,7.4,8.1,59,0,0
2002-12-01,NA,NA,9.9,12,9,0,9.4,77,2,1
2002-12-02,NA,NA,10.3,13.8,7.6,5.2,8.4,68,3,3
2002-12-03,NA,NA,10.3,14.5,7,4.5,8.1,65,0,0
2002-12-04,NA,NA,9.3,10.3,8.5,0,9.5,81,16,4
2002-12-05,NA,NA,13.4,19.1,7.8,5.7,10.9,72,0,0
2002-12-06,NA,NA,11.7,13.9,9.2,0.4,7,51,0,0
2002-12-07,NA,NA,6.4,9.2,4.1,0,7.2,76,11,2
2002-12-08,NA,NA,5.8,7.1,3.2,0,6.7,73,2,1
2002-12-09,NA,NA,1.3,3.2,0.4,0,6,89,18,3
2002-12-10,NA,NA,4.2,7.8,2.2,3.9,6.3,76,0,0
2002-12-11,NA,NA,4.9,9.8,1,9.2,4.9,57,0,0
2002-12-12,NA,NA,5,9.3,1.6,7.9,5.4,62,0,0
2002-12-13,NA,NA,5.6,9.8,3,6.1,4.2,48,0,0
2002-12-14,NA,NA,4.9,7.9,2.2,9.1,4.4,50,0,0
2002-12-15,NA,NA,5.8,9.9,1.9,5.7,6,64,0,0
2002-12-16,NA,NA,10.8,17.3,3.8,6.1,8.6,64,0,0
2002-12-17,NA,NA,11.3,16.8,6.3,8.5,7.1,52,4,2
2002-12-18,NA,NA,7.7,11.9,5,2.5,5.9,55,0,0
2002-12-19,NA,NA,8.8,10.7,6.7,0,7.7,68,0,0
2002-12-20,NA,NA,8.8,11.3,6.7,4.4,5.7,50,0,0
2002-12-21,NA,NA,4.7,7.6,3,0,6.2,74,30,4
2002-12-22,NA,NA,6.5,8.2,4.7,0,7.1,74,2,1
2002-12-23,NA,NA,6.8,9.5,4,8.3,5.5,56,0,0
2002-12-24,NA,NA,6.1,7.4,4.9,0,6.4,67,0,0
2002-12-25,NA,NA,7.9,14.7,2.8,5.8,7,67,0,0
2002-12-26,NA,NA,6.2,10,2.6,8.8,3.1,33,0,0
2002-12-27,NA,NA,4,8.9,1.4,8.5,3.2,39,0,0
2002-12-28,NA,NA,3.5,6.6,1.1,5.3,3.6,45,0,0
2002-12-29,NA,NA,5.2,10.3,0.6,9.2,4,46,0,0
2002-12-30,NA,NA,5.3,8.1,3.6,4,4,44,0,0
2002-12-31,NA,NA,5.3,9.7,1.1,5,5.4,59,0,0
2003-01-01,NA,NA,4.7,6.8,3.1,1.8,5,59,0,0
2003-01-02,NA,NA,3.5,6.5,0.6,9.3,4.1,54,0,0
2003-01-03,NA,NA,0.5,2.3,-0.5,0,4.4,70,17,8
2003-01-04,NA,NA,5.9,11.8,0.6,9.5,4.9,55,7,7
2003-01-05,NA,NA,3.9,8.5,1.2,9.2,2.5,32,0,0
2003-01-06,NA,NA,3.6,8.2,-1.2,9.5,3,38,0,0
2003-01-07,NA,NA,4.2,8.2,1,4.8,3.7,45,0,0
2003-01-08,NA,NA,5.2,9.3,2.1,8.4,4.4,51,0,0
2003-01-09,NA,NA,4.6,9.2,0.5,6.9,4.9,58,0,0
2003-01-10,NA,NA,7.2,12.9,2.3,8.7,5.3,53,0,0
2003-01-11,NA,NA,7.5,10.7,5,6.9,4.3,42,0,0
2003-01-12,NA,NA,7.2,12.5,2.5,9.4,4.5,45,0,0
2003-01-13,NA,NA,7.7,13.1,3.6,6.5,5.1,48,0,0
2003-01-14,NA,NA,9,14.9,3.2,9.1,5.7,50,0,0
2003-01-15,NA,NA,3.8,7,0.1,8.4,2.7,34,0,0
2003-01-16,NA,NA,3.2,7.1,-1.6,5,3.9,50,0,0
2003-01-17,NA,NA,6.7,12.4,1,9.2,4.6,47,0,0
2003-01-18,NA,NA,7.2,11.2,4.7,7.4,6,59,0,0
2003-01-19,NA,NA,5,7.7,3,0,6.3,73,11,4
2003-01-20,NA,NA,6,9.5,3.1,7.4,6.2,68,1,1
2003-01-21,NA,NA,5.3,9.1,2.8,8.6,4.6,53,0,0
2003-01-22,NA,NA,5.2,9.4,1.2,5,3.6,41,0,0
2003-01-23,NA,NA,2.9,6.4,0.9,0,5.6,74,23,6
2003-01-24,NA,NA,5.5,8.9,2.4,8.8,3.9,43,0,0
2003-01-25,NA,NA,5.1,10.8,0.5,9.9,2.9,33,0,0
2003-01-26,NA,NA,5.5,8,2.6,6.2,4.6,51,1,1
2003-01-27,NA,NA,3.3,4.6,2.3,0,6.9,89,59,15
2003-01-28,NA,NA,10,14.6,4.4,9.3,6.1,50,0,1
2003-01-29,NA,NA,3.5,7.5,-1.1,8.5,2.3,29,0,0
2003-01-30,NA,NA,3.5,8.7,-1.2,9.3,3.1,40,0,0
2003-01-31,NA,NA,4.7,9,-0.2,9.7,3.8,45,0,0
2003-02-01,NA,NA,4.8,8.8,2.4,8.7,2.9,35,0,0
2003-02-02,NA,NA,3.5,5.7,1.6,0.4,3.5,44,0,0
2003-02-03,NA,NA,4.4,7.6,1,7.2,4,48,0,0
2003-02-04,NA,NA,4.1,6.2,2.3,2.9,4.7,57,0,0
2003-02-05,NA,NA,4.7,7.7,2.4,5.8,5.5,65,0,0
2003-02-06,NA,NA,5.1,9.9,1.6,9.6,3.7,44,0,0
2003-02-07,NA,NA,5.9,11.1,1,10,4.9,52,0,0
2003-02-08,NA,NA,7,11.1,2.5,4.9,5.6,56,3,2
2003-02-09,NA,NA,8.5,13.3,4.5,9.7,8.2,74,18,9
2003-02-10,NA,NA,9.4,11.2,7.9,1.6,8.8,75,4,2
2003-02-11,NA,NA,8.6,10.1,7.8,0,9.8,88,5,3
2003-02-12,NA,NA,6.2,8.6,3.9,0.1,4.6,46,0,0
2003-02-13,NA,NA,6.1,10.3,2.3,7.3,5.1,53,0,0
2003-02-14,NA,NA,7.1,12.3,3,8.6,4.2,42,0,0
2003-02-15,NA,NA,6.6,10.2,3.5,7.2,5,51,0,0
2003-02-16,NA,NA,4.6,7.3,2.2,0,6.6,77,11,4
2003-02-17,NA,NA,7.3,13.8,2.3,9.7,4.7,49,0,0
2003-02-18,NA,NA,5.2,7.1,3,0,5.6,64,1,1
2003-02-19,NA,NA,5.7,9.5,2.2,9.3,5.7,63,0,0
2003-02-20,NA,NA,5.5,7.8,2.8,0,6,68,0,0
2003-02-21,NA,NA,7.2,11.6,3.7,10.6,4,39,0,0
2003-02-22,NA,NA,5.8,7.7,4.3,0.2,6.4,68,0,0
2003-02-23,NA,NA,6.2,8.3,4.6,0,6.5,69,0,0
2003-02-24,NA,NA,3.2,5.6,1.8,0,6,78,6,2
2003-02-25,NA,NA,5.5,9.9,1,8.6,5.2,59,0,0
2003-02-26,NA,NA,9.1,15,4.5,8.3,5.7,48,0,0
2003-02-27,NA,NA,7.7,11.5,3.4,7.2,3.9,37,0,0
2003-02-28,NA,NA,6.1,9.7,1.7,10.9,3.3,35,0,0
2003-03-01,NA,NA,4.5,8.6,2.8,0,5.9,71,112,34
2003-03-02,NA,NA,11.1,15.5,4.9,8.1,4.9,39,2,5
2003-03-03,NA,NA,9.7,15.3,4.8,2.4,7.8,62,20,14
2003-03-04,NA,NA,5,8.2,1.7,9.1,2.7,31,1,1
2003-03-05,NA,NA,4.7,8.6,0,6.6,3.3,39,0,0
2003-03-06,NA,NA,4.5,6.5,2.8,0,5.2,61,3,2
2003-03-07,NA,NA,5,10.6,2.1,0,7.7,88,24,4
2003-03-08,NA,NA,10,16,6,8.9,4.9,41,0,0
2003-03-09,NA,NA,7,10.6,3.8,9.3,3.4,35,0,0
2003-03-10,NA,NA,5.8,10.7,2.8,10.7,3,33,0,0
2003-03-11,NA,NA,4.7,9.1,2.3,9.5,2.9,34,0,0
2003-03-12,NA,NA,5.6,10.5,1.4,9.7,3.1,35,0,0
2003-03-13,NA,NA,5.9,9.5,2.6,8.7,4.2,44,0,0
2003-03-14,NA,NA,7,10.5,3.8,6.2,5.2,51,0,0
2003-03-15,NA,NA,7.4,9.4,6.3,0,7.4,72,1,1
2003-03-16,NA,NA,8.2,11.9,4.9,5.8,8,74,14,3
2003-03-17,NA,NA,5.7,8.2,4.1,0,7.4,81,4,3
2003-03-18,NA,NA,6.5,9.4,4,1.2,6.5,68,4,2
2003-03-19,NA,NA,6.9,11.9,3.6,5.9,5.8,59,1,1
2003-03-20,NA,NA,8,13,4.2,11.2,3.6,35,0,0
2003-03-21,NA,NA,7.2,10.7,3.7,9.1,4.2,41,0,0
2003-03-22,NA,NA,6.9,8.9,4.8,0,6.3,63,0,1
2003-03-23,NA,NA,10.1,15.8,5.2,9.8,7.6,62,0,1
2003-03-24,NA,NA,13.6,18.5,8.5,10.5,8.8,57,0,0
2003-03-25,NA,NA,10.6,13.3,9.2,0,11.1,87,18,4
2003-03-26,NA,NA,13.2,18.5,8.9,9.2,8.5,58,0,1
2003-03-27,NA,NA,14.6,19.2,8.5,8.3,10.5,63,0,0
2003-03-28,NA,NA,14.2,18.3,10.6,11,5.8,36,0,0
2003-03-29,NA,NA,10.2,14.3,7.1,2.1,5.9,47,0,0
2003-03-30,NA,NA,10.5,15.5,6,8.2,6.1,46,0,0
2003-03-31,NA,NA,14,21.5,7.3,10.1,8.2,53,0,0
2003-04-01,NA,NA,13.1,17.4,10.3,7.2,7.8,53,0,0
2003-04-02,NA,NA,9.3,10.5,7.8,0,9.6,82,15,4
2003-04-03,NA,NA,10.2,14.4,7.2,8.3,7,57,0,1
2003-04-04,NA,NA,9.7,14.1,5.5,5.3,7.3,61,4,2
2003-04-05,NA,NA,6.5,9.1,4,0,8.4,87,54,6
2003-04-06,NA,NA,11.1,16.2,5.1,11.9,5.7,48,1,2
2003-04-07,NA,NA,13.8,20.1,7.3,9.9,7.4,48,0,0
2003-04-08,NA,NA,16.6,20.2,14,1.3,13.5,72,21,12
2003-04-09,NA,NA,14.8,21.4,7,9.9,7.8,47,1,1
2003-04-10,NA,NA,10.3,13.9,6.9,10.9,4.9,39,0,1
2003-04-11,NA,NA,12.5,16.4,7.3,3.1,8.3,57,0,0
2003-04-12,NA,NA,15.9,19.2,13.5,2,14,77,7,2
2003-04-13,NA,NA,17.5,22.8,13.5,7.1,14.7,74,1,1
2003-04-14,NA,NA,14.5,16.8,13,0.4,8.6,52,0,1
2003-04-15,NA,NA,11.3,13.2,10.5,0,10,75,5,2
2003-04-16,NA,NA,14.9,19.6,10.8,8.3,11.4,69,0,0
2003-04-17,NA,NA,17.8,22.5,12.6,11.4,12.7,64,0,0
2003-04-18,NA,NA,19.4,25,14.2,9.3,13.7,62,0,0
2003-04-19,NA,NA,20.5,24.8,17.5,6.1,14.2,59,0,0
2003-04-20,NA,NA,13.6,18.9,10.3,0,13.4,86,2,1
2003-04-21,NA,NA,12.5,17.6,10.3,3.3,9.7,68,1,1
2003-04-22,NA,NA,13.1,17.7,10,11.9,6.8,45,0,0
2003-04-23,NA,NA,14.7,16.3,12.7,0,12.4,74,2,1
2003-04-24,NA,NA,18.4,22.4,15.6,0.1,16.4,77,0,1
2003-04-25,NA,NA,15.5,17.5,14.1,0,14.5,83,2,1
2003-04-26,NA,NA,21.6,25.6,14,2.6,18.4,72,10,4
2003-04-27,NA,NA,16.2,20.5,13.6,7,11.2,62,0,0
2003-04-28,NA,NA,17.3,22.5,12.7,12.1,12.1,63,0,0
2003-04-29,NA,NA,18.9,23.8,14.2,10,14.6,67,0,0
2003-04-30,NA,NA,18.9,22.5,14.8,0.4,14.7,66,0,0
2003-05-01,NA,NA,15.2,19.5,12.1,12.6,5.6,33,0,0
2003-05-02,NA,NA,17,21.2,12.4,8.9,11.8,61,0,0
2003-05-03,NA,NA,19.7,25.3,15.9,10.2,15.8,70,0,0
2003-05-04,NA,NA,20,24.5,16.6,8.3,17.1,74,0,0
2003-05-05,NA,NA,19.4,24.4,16.9,6.3,15.2,68,0,0
2003-05-06,NA,NA,19.6,24.2,16.2,5.1,15.7,69,0,0
2003-05-07,NA,NA,21.5,25.4,18.4,4.6,19.6,77,0,0
2003-05-08,NA,NA,20.5,26.3,11.2,0.8,19.1,78,1,1
2003-05-09,NA,NA,13.8,18.5,10,8.2,7.8,51,1,1
2003-05-10,NA,NA,15.8,21.1,11,11.2,9.1,52,0,0
2003-05-11,NA,NA,17.8,22.2,14.3,3.5,12.3,61,0,0
2003-05-12,NA,NA,17.4,20.8,15.1,1.9,14.7,74,4,3
2003-05-13,NA,NA,19.4,22.6,16,2.5,14.5,65,0,0
2003-05-14,NA,NA,19.4,22.8,16.5,0.3,15.1,68,3,3
2003-05-15,NA,NA,16.1,16.7,15.4,0,16.3,89,26,3
2003-05-16,NA,NA,16.3,17.9,15,0,15.4,83,3,1
2003-05-17,NA,NA,15.2,16.8,13.7,0,12.9,75,1,1
2003-05-18,NA,NA,16.8,19.8,14.7,0,13.9,72,0,0
2003-05-19,NA,NA,16.1,17.3,14.9,0,16,88,8,2
2003-05-20,NA,NA,17.5,21.2,15.2,0.1,16.8,84,22,7
2003-05-21,NA,NA,19.1,23.8,14.9,7.8,14.3,66,2,2
2003-05-22,NA,NA,19.2,25.2,15.8,9.8,14.8,67,0,0
2003-05-23,NA,NA,17.8,21.6,15.5,0.2,13.9,68,0,0
2003-05-24,NA,NA,18.7,23.1,15.4,7.1,13.9,65,0,0
2003-05-25,NA,NA,17.9,22.1,14.4,5.8,13.3,66,0,0
2003-05-26,NA,NA,16.7,19.6,13.9,0,14.2,75,0,1
2003-05-27,NA,NA,18.3,23,15.7,1,16.1,77,6,2
2003-05-28,NA,NA,21.1,26.1,17.2,11.8,16.3,67,0,0
2003-05-29,NA,NA,21.3,26.2,17.4,12.7,16,64,0,0
2003-05-30,NA,NA,21.6,25.7,17.8,8.7,14.8,58,0,0
2003-05-31,NA,NA,20.5,23.1,18.2,0,20.2,83,93,20
2003-06-01,NA,NA,22.5,25.1,20.1,2.1,18.4,67,0,0
2003-06-02,NA,NA,21.4,25.8,18.1,4.2,13.2,52,0,0
2003-06-03,NA,NA,21.3,26.5,16.9,11,16.6,66,0,0
2003-06-04,NA,NA,19.1,22.6,16.3,0,17.3,79,6,1
2003-06-05,NA,NA,21.7,27.2,16.3,11.5,14.8,59,0,1
2003-06-06,NA,NA,21.7,26.8,17,12.2,16.5,65,0,0
2003-06-07,NA,NA,22.1,24.7,19.6,3.2,18.7,71,0,0
2003-06-08,NA,NA,21.4,25.6,18.8,11,18.2,72,0,0
2003-06-09,NA,NA,19.9,23.4,17.6,2.3,16.4,71,0,0
2003-06-10,NA,NA,20,24.2,16.9,2.7,16,69,1,1
2003-06-11,NA,NA,20.2,24.3,17.4,1.8,17.5,75,1,1
2003-06-12,NA,NA,20.8,23.5,18.8,0,21.7,88,10,2
2003-06-13,NA,NA,23.5,25.9,21.6,1.1,24,83,0,1
2003-06-14,NA,NA,24.6,30.3,21.5,4.5,22.8,75,5,4
2003-06-15,NA,NA,21.9,24.2,20.2,0,20.8,79,0,1
2003-06-16,NA,NA,22.6,24.7,21.1,0,21.4,78,0,0
2003-06-17,NA,NA,22.9,24.6,22,0,22.1,79,4,1
2003-06-18,NA,NA,23,26.2,21.6,0,22.4,80,3,1
2003-06-19,NA,NA,24.7,28.6,21.8,7,23.2,75,0,0
2003-06-20,NA,NA,26.2,29,24,5.5,22.7,67,0,0
2003-06-21,NA,NA,26.7,31.5,22.8,12.1,18.7,54,0,0
2003-06-22,NA,NA,25.8,30.5,21.8,5.1,20.1,62,0,0
2003-06-23,NA,NA,20.8,22.2,20.2,0,21.1,86,3,1
2003-06-24,NA,NA,21.5,22.9,20.7,0,22.5,88,9,2
2003-06-25,NA,NA,22.9,26.6,21.3,1,23.4,84,19,6
2003-06-26,NA,NA,20.7,23.5,19,0.3,18.8,77,1,1
2003-06-27,NA,NA,22.8,27.9,18.7,6.3,20,73,0,0
2003-06-28,NA,NA,22.9,26.6,20.2,0,23.1,83,3,2
2003-06-29,NA,NA,23.6,29.1,19.9,4.6,21.7,75,1,1
2003-06-30,NA,NA,24.4,28,22.3,4,22.6,74,0,0
2003-07-01,0,0,21.5,23.8,18.8,0.2,20.5,80,5,2
2003-07-02,0,0,21.9,26.2,18.8,5.8,19.2,74,0,1
2003-07-03,0,0,22.3,25.8,19,1.6,19.8,74,4,3
2003-07-04,0,0,24.2,29.4,21.2,1.5,22.7,76,26,15
2003-07-05,0,0,24,28.7,20.9,6.1,20.1,68,0,0
2003-07-06,0,0,20.5,23.5,18.1,0.4,19.4,81,2,2
2003-07-07,0,0,21.7,23.8,20,0,22.1,85,4,3
2003-07-08,0,0,19.8,21.8,18.2,0,19.6,85,1,1
2003-07-09,0,0,20.9,24.9,18.3,0.1,19,77,0,1
2003-07-10,0,0,22.7,25,20.2,0,23.6,85,3,2
2003-07-11,0,0,27.3,33,24.5,8.6,26,72,0,0
2003-07-12,0,0,25.7,29.9,22.9,5.6,25.1,76,5,3
2003-07-13,0,0,20.8,23.1,19.1,0,19.8,81,6,2
2003-07-14,0,0,19.1,21,18.1,0,18,82,33,9
2003-07-15,0,0,20.5,23.9,17.7,0,17.2,72,0,0
2003-07-16,0,0,22.8,27.3,20.1,1.6,20.6,75,0,0
2003-07-17,0,0,22.7,27.2,20.3,3.2,19.2,70,0,0
2003-07-18,0,0,22.4,25.8,19.7,2,19.7,73,0,0
2003-07-19,0,0,23.6,26.9,21,0.1,21.2,73,1,1
2003-07-20,0,0,24.2,28.2,22.3,1,23.6,78,0,0
2003-07-21,0,0,23.2,26,21.2,0.1,24.4,86,6,4
2003-07-22,0,0,20.9,22.3,18.8,0,19.5,78,0,0
2003-07-23,0,0,19.3,20.6,18.3,0,18,81,9,3
2003-07-24,0,0,21.2,25.3,17.7,0.7,21,84,24,12
2003-07-25,2,0,22.6,27.3,18.8,0.3,21.4,79,14,8
2003-07-26,2,0,22.2,26.9,18.5,1.5,19.1,72,5,2
2003-07-27,1,0,22.1,27.3,18.5,4.4,17.5,66,0,0
2003-07-28,2,0,21.8,26.3,17.9,4.4,18.7,72,0,0
2003-07-29,3,0,23.3,26.2,21,0,23,80,13,10
2003-07-30,16,1,24.4,26.1,23.1,0.8,25.3,83,9,15
2003-07-31,22,0,25.3,30.1,23.2,2.4,25.6,80,2,2
2003-08-01,19,0,23.8,27.4,22,3.3,23.5,80,0,0
2003-08-02,57,0,26.5,31.8,22.2,7.6,25.9,75,0,0
2003-08-03,40,1,27.7,31.4,24.9,12.1,26.1,71,0,0
2003-08-04,41,7,28.5,32.7,25.3,10.9,27,70,0,0
2003-08-05,48,17,27.8,32.9,23.9,8.2,27.1,73,8,4
2003-08-06,29,15,27.4,31.2,24.3,4.4,26.7,74,0,0
2003-08-07,31,20,27.4,31.5,24.8,6.9,26.8,74,0,0
2003-08-08,13,6,27.3,29.9,24.8,3.6,27.2,75,1,1
2003-08-09,42,27,26.3,28.4,24.1,0,27.3,80,27,9
2003-08-10,17,13,27.4,31.8,24.1,11.7,25.7,71,0,0
2003-08-11,37,34,27.2,30.5,24.8,12.1,23.4,65,0,0
2003-08-12,7,17,26.7,31.8,22.5,2.9,25.2,72,0,0
2003-08-13,4,7,23.5,26.2,21.5,1.5,21.3,74,0,0
2003-08-14,7,16,19.4,21.5,18.2,0,19.9,89,92,15
2003-08-15,17,15,18.9,20.1,18,0,20,91,172,19
2003-08-16,10,14,18.9,19.7,18,0,19.8,91,57,10
2003-08-17,7,23,19.6,21,18.2,0,20.7,91,10,6
2003-08-18,13,28,21.3,25,19.4,0,22.1,87,2,1
2003-08-19,4,20,21.5,23.5,19.9,0,21.5,84,1,1
2003-08-20,4,33,23.8,27.9,20.5,2.8,22.9,78,0,0
2003-08-21,7,15,25.9,31.1,22.9,8.6,25.2,76,0,0
2003-08-22,4,20,26.9,31.8,23.9,9.6,26.6,76,0,0
2003-08-23,7,18,28.1,32.6,24.7,11.5,27,72,0,0
2003-08-24,7,12,28.9,33.8,25.3,9,27.5,70,0,0
2003-08-25,3,3,28.5,32.1,25.8,11.7,26.7,69,0,0
2003-08-26,0,7,27.8,31.1,26.5,1.3,26.7,71,0,0
2003-08-27,0,0,24.5,29,21.6,4,23.5,77,21,14
2003-08-28,0,0,24.5,27.6,21.3,2,23.4,76,0,0
2003-08-29,0,0,27.6,32.3,23,8.3,25.4,69,0,0
2003-08-30,0,0,25.6,27.9,22.7,0.5,21.9,67,0,0
2003-08-31,0,0,25.4,31.9,21.1,3.7,23.8,73,0,0
2003-09-01,NA,NA,22.4,25.1,20.5,0.7,21.6,80,0,0
2003-09-02,NA,NA,25.5,29.5,22.1,1.9,24.9,76,0,0
2003-09-03,NA,NA,28.3,33.1,25.2,7.9,27.3,72,0,0
2003-09-04,NA,NA,25.5,27.9,23.5,4.4,20.6,64,0,0
2003-09-05,NA,NA,25.8,30.5,23.2,10,19.5,60,0,0
2003-09-06,NA,NA,26.8,31.7,22,8.8,24.3,70,0,0
2003-09-07,NA,NA,23,27.1,21.7,0,20.3,72,0,0
2003-09-08,NA,NA,23.6,27.5,21,1,21.6,74,0,0
2003-09-09,NA,NA,27,32.1,22.4,11.3,24.8,70,0,0
2003-09-10,NA,NA,28,31.7,25.9,10,26.6,71,0,0
2003-09-11,NA,NA,28.6,33,25.2,11.2,26.7,69,0,0
2003-09-12,NA,NA,28.6,33.3,25.1,10.5,27.4,71,0,0
2003-09-13,NA,NA,28.4,32.2,25.1,8.7,27.2,71,0,0
2003-09-14,NA,NA,28,32.5,25.3,7.3,21.1,57,0,0
2003-09-15,NA,NA,27.1,31.8,23.9,10,21.8,61,0,0
2003-09-16,NA,NA,24.8,28.3,22.8,5.1,20.8,67,0,0
2003-09-17,NA,NA,25.8,30,22.2,10,22.1,67,0,0
2003-09-18,NA,NA,26.2,30.4,23.2,9.3,23.6,70,0,0
2003-09-19,NA,NA,26.6,30.3,23.6,10.2,22.9,66,0,0
2003-09-20,NA,NA,21.4,26.2,17.6,0,20.2,79,31,6
2003-09-21,NA,NA,16,17.8,14.4,0,16.2,89,91,8
2003-09-22,NA,NA,16.4,19.6,14,1.2,12.4,67,0,1
2003-09-23,NA,NA,17.9,22.6,13.6,5.6,12.8,63,0,0
2003-09-24,NA,NA,16.9,19.1,15,0,14.5,76,17,5
2003-09-25,NA,NA,17.5,19.1,15,0,17.4,87,0,2
2003-09-26,NA,NA,21.5,25.9,18.4,0.8,20.1,79,0,0
2003-09-27,NA,NA,22,25.7,18.8,9.2,17.2,66,0,0
2003-09-28,NA,NA,20.7,24.3,18.5,9.4,15.8,65,0,0
2003-09-29,NA,NA,20.7,25.2,17.7,8.1,15,62,0,0
2003-09-30,NA,NA,20.1,24.9,16.3,11.2,9.1,39,0,0
2003-10-01,NA,NA,20.4,24.6,15.6,8.9,12.8,53,0,0
2003-10-02,NA,NA,22.7,27.6,18.9,6.6,13.2,48,0,0
2003-10-03,NA,NA,20.1,24.1,17.4,2.8,10.8,46,0,0
2003-10-04,NA,NA,18.7,21.8,17,4.6,11.2,52,0,0
2003-10-05,NA,NA,17.8,20.8,15.6,3.1,11.7,58,0,0
2003-10-06,NA,NA,16.4,18.6,15,0,13.8,74,3,2
2003-10-07,NA,NA,16.6,19.4,14.2,0.1,12.9,69,0,0
2003-10-08,NA,NA,16.3,18.4,14.7,0,11.7,64,0,0
2003-10-09,NA,NA,16.5,21,12.6,8.5,11.2,61,0,0
2003-10-10,NA,NA,17.2,22.5,13.1,4.2,13.1,66,0,0
2003-10-11,NA,NA,18.9,22.3,15.7,0.8,14.6,68,1,1
2003-10-12,NA,NA,20.5,23.8,16.5,1.6,20.5,84,24,12
2003-10-13,NA,NA,23.1,26.5,17.8,1.9,21.8,76,37,37
2003-10-14,NA,NA,15.3,18.4,12.4,0,13.8,80,25,6
2003-10-15,NA,NA,15.2,19.6,11.8,5.2,13.7,80,1,2
2003-10-16,NA,NA,17.2,20.7,14.8,8.6,12.6,65,0,0
2003-10-17,NA,NA,16.2,19.8,14,9.9,10.2,56,0,0
2003-10-18,NA,NA,14.9,18.7,13.3,1.4,11.3,67,0,1
2003-10-19,NA,NA,16.5,21.2,11.6,10.1,11.5,63,0,0
2003-10-20,NA,NA,16.2,19.5,13.5,6.3,11.3,62,0,0
2003-10-21,NA,NA,16.8,21.6,11.8,6.2,11.9,62,0,0
2003-10-22,NA,NA,15.1,17.2,13.8,0,15.1,88,36,5
2003-10-23,NA,NA,17.5,22.6,14,7.1,14.2,71,2,1
2003-10-24,NA,NA,15.4,19.8,11.5,10.6,9,51,0,0
2003-10-25,NA,NA,14.8,16.8,13.3,0,10,59,0,0
2003-10-26,NA,NA,16.8,21.4,13.7,8.7,11.1,59,0,0
2003-10-27,NA,NA,16.3,20.5,14.2,6.2,11.2,60,0,0
2003-10-28,NA,NA,14.1,15.7,12.6,0,13.7,85,40,8
2003-10-29,NA,NA,19.9,24.2,15.1,9.5,14.2,62,1,1
2003-10-30,NA,NA,17.4,23.4,13,10.2,10.1,51,0,0
2003-10-31,NA,NA,16.9,20.6,12.4,6.9,11.9,61,0,0
2003-11-01,NA,NA,16.7,20,13.4,0.2,15.2,79,1,2
2003-11-02,NA,NA,18.1,22,14.7,8.9,15.4,74,0,0
2003-11-03,NA,NA,18.5,21.2,15.4,0,18.3,85,3,1
2003-11-04,NA,NA,18.1,21.7,15.1,2.8,12.8,62,0,0
2003-11-05,NA,NA,16.6,19.6,14.9,0.8,12.6,67,14,6
2003-11-06,NA,NA,16.4,19.3,14.3,0.7,16.3,88,45,14
2003-11-07,NA,NA,17.8,20.5,15.4,1.7,17.2,85,0,0
2003-11-08,NA,NA,18.2,22.3,15.3,7.6,16.3,79,0,0
2003-11-09,NA,NA,15.6,17.8,12.7,0,14.4,81,3,2
2003-11-10,NA,NA,11.4,12.9,9.7,0,11.6,86,15,3
2003-11-11,NA,NA,10.9,12.6,9.6,0,11.5,88,16,3
2003-11-12,NA,NA,13.8,17.5,11.2,7.3,10.9,70,1,1
2003-11-13,NA,NA,12.9,14.1,11.3,1.6,10.2,69,0,0
2003-11-14,NA,NA,12.3,15.8,8.5,9.3,8.7,61,0,0
2003-11-15,NA,NA,13.2,17.6,9.7,0.1,11.7,75,9,6
2003-11-16,NA,NA,20.2,24.2,15.3,7.6,14.7,62,3,9
2003-11-17,NA,NA,13.6,17.9,10.2,9.5,6.1,39,0,0
2003-11-18,NA,NA,11.7,14.4,7.5,2.9,7.6,55,0,0
2003-11-19,NA,NA,13,15.8,10.2,0.5,9.1,60,0,0
2003-11-20,NA,NA,11.2,13.5,10.2,0,11.3,85,26,5
2003-11-21,NA,NA,17.1,23.1,10.9,6.4,14.8,76,11,6
2003-11-22,NA,NA,14.9,18.6,10.8,5.5,7.9,46,0,0
2003-11-23,NA,NA,10.6,12.5,9.2,1.4,6.7,52,0,0
2003-11-24,NA,NA,10.1,11.2,8.9,0,7.9,64,0,0
2003-11-25,NA,NA,11.4,15.1,9,0,11.2,83,48,9
2003-11-26,NA,NA,12.5,15.9,9.3,9.2,8.1,56,0,0
2003-11-27,NA,NA,9.5,11.4,7.7,0.2,7.6,65,0,0
2003-11-28,NA,NA,10.7,12.2,8.9,0.7,8.1,63,0,0
2003-11-29,NA,NA,11.6,13.9,9.4,0,12,87,13,4
2003-11-30,NA,NA,15.3,17.7,13.6,0,15.4,89,59,14
2003-12-01,NA,NA,12.6,15.9,10.7,0,12.4,85,35,6
2003-12-02,NA,NA,13.9,18.8,10.7,8.4,8.7,56,0,1
2003-12-03,NA,NA,11.5,13.8,9.6,0.4,7.4,55,0,0
2003-12-04,NA,NA,11,14.9,8.3,7.5,6.4,49,0,0
2003-12-05,NA,NA,7.6,9.1,6.6,0,6.5,62,2,1
2003-12-06,NA,NA,11.7,17.8,6.9,0.5,10.1,71,0,0
2003-12-07,NA,NA,12.6,18.4,8.9,8.6,7.5,52,0,0
2003-12-08,NA,NA,9.9,13.2,7.3,6.9,6.2,50,0,0
2003-12-09,NA,NA,9,13.8,6.1,8.1,5.2,46,0,0
2003-12-10,NA,NA,8.3,11.3,6.3,7.3,5.1,46,0,0
2003-12-11,NA,NA,5.7,7.1,4.7,0,6.4,71,8,4
2003-12-12,NA,NA,8,11,4.8,0.2,8.9,83,12,4
2003-12-13,NA,NA,9.3,13.8,5.5,8.8,6.7,58,0,0
2003-12-14,NA,NA,9,13.9,3.9,9.3,5.3,47,0,0
2003-12-15,NA,NA,8.9,13,4.9,7.7,6.5,57,0,0
2003-12-16,NA,NA,8.9,13.3,5.4,7.2,5.1,45,0,0
2003-12-17,NA,NA,6.6,10.1,3.9,4.2,6,62,0,0
2003-12-18,NA,NA,8.4,14,3.3,7.9,5.4,51,0,0
2003-12-19,NA,NA,9.2,14.4,6.1,4.8,4.8,42,0,0
2003-12-20,NA,NA,6,8.5,3.4,8.3,2.7,30,0,0
2003-12-21,NA,NA,7.3,11.5,4.2,9.4,3.8,38,0,0
2003-12-22,NA,NA,7.5,13.3,2.4,6.4,5.8,56,0,0
2003-12-23,NA,NA,10,15.2,4.8,9.3,6.7,55,0,0
2003-12-24,NA,NA,10.2,15.2,4.6,8.8,7,57,0,0
2003-12-25,NA,NA,11.2,15.6,6.3,6.1,6.9,52,0,0
2003-12-26,NA,NA,10.2,13.4,6.3,5.1,6.5,53,2,2
2003-12-27,NA,NA,4.7,8.4,1.1,6.8,4,49,7,5
2003-12-28,NA,NA,6.6,11.7,1.4,9.3,4,40,0,0
2003-12-29,NA,NA,8.9,14.2,2.3,8.4,5.5,49,0,0
2003-12-30,NA,NA,9.1,13.9,5.7,8.6,5.2,45,0,0
2003-12-31,NA,NA,8,13,4.8,4.9,5.6,51,0,0
2004-01-01,NA,NA,9.2,12.8,6.3,1.9,6.2,54,0,0
2004-01-02,NA,NA,9.8,15.5,4.4,7.7,6.9,58,0,0
2004-01-03,NA,NA,9.4,13.4,6.2,8.7,7.2,61,0,0
2004-01-04,NA,NA,8.3,11.9,6.3,3.7,5.1,47,0,0
2004-01-05,NA,NA,6.8,9.5,4.5,5.5,5.7,57,0,0
2004-01-06,NA,NA,6.9,10.7,3.7,9,5.3,54,0,0
2004-01-07,NA,NA,5.7,8.8,3.2,4.9,5,53,0,0
2004-01-08,NA,NA,5.5,8.6,2.7,9.4,3.2,37,0,0
2004-01-09,NA,NA,6.2,9.8,3.1,8.4,2.9,31,0,0
2004-01-10,NA,NA,6,12.2,1.6,8,4.4,46,0,0
2004-01-11,NA,NA,5.8,10.5,3.9,6.2,3,33,0,0
2004-01-12,NA,NA,5.1,7.7,2.6,2.2,4.5,50,0,0
2004-01-13,NA,NA,5.9,12.5,2,5.4,5,55,1,1
2004-01-14,NA,NA,5,9.2,1.8,9.7,2.5,30,0,0
2004-01-15,NA,NA,4.2,9,0.3,9.6,2.6,32,0,0
2004-01-16,NA,NA,4.4,8.2,1.6,8.6,2.7,33,0,0
2004-01-17,NA,NA,2.1,3.1,0.4,0,4.4,63,0,0
2004-01-18,NA,NA,4.9,8.6,0.9,7.6,5.4,63,0,0
2004-01-19,NA,NA,4.6,7.5,2.6,3,6.4,76,5,3
2004-01-20,NA,NA,7.3,12.5,2.1,9.3,5,52,0,0
2004-01-21,NA,NA,7.3,10.1,4,1.4,6.1,59,0,0
2004-01-22,NA,NA,4.7,8.9,0,9.8,2.8,32,0,0
2004-01-23,NA,NA,3.7,8.7,-0.7,9.7,3.3,41,0,0
2004-01-24,NA,NA,4.8,7.6,1.3,0.4,4,46,0,0
2004-01-25,NA,NA,4.7,9.7,0.5,8.3,3.5,43,0,0
2004-01-26,NA,NA,5.2,8.9,1,9.6,4,46,0,0
2004-01-27,NA,NA,4.9,8.5,1.9,4.7,3.9,45,0,0
2004-01-28,NA,NA,6.3,10.4,2.3,9.8,4.1,42,0,0